This demonstration page uses our WeatherBlox Daily Observations layout. Learn more.

Left ArrowRight Arrow

30.21309, -93.2044

Hourly Observations for August 19, 2020

Temp ( °F °C ) Dew Point ( °F °C ) Humidity (%) Winds ( mph kmh ) Pressure ( in mb ) Visibility ( mi km ) Precip ( " mm )
12:15 am 00:15 Clear 81 27.3 74 23.3 79 79 NW 5 7 29.89 1012 10 16 0.00 0.00
12:35 am 00:35 Clear 81 27 73 23 79 79 NW 5 7 29.89 1012 10 16 0.00 0.00
12:55 am 00:55 Clear 80 26.6 73 22.8 80 80 WNW 5 7 29.89 1012 10 16 0.00 0.00
1:15 am 01:15 Clear 79 26.3 72 22.2 78 78 NW 5 7 29.89 1012 10 16 0.00 0.00
1:35 am 01:35 Clear 78 25.5 72 22 81 81 NW 5 7 29.88 1012 10 16 0.00 0.00
1:55 am 01:55 Clear 77 25.1 72 22.1 83 83 NNW 7 11 29.88 1012 10 16 0.00 0.00
2:15 am 02:15 Clear 77 25.1 71 21.4 80 80 NNW 6 9 29.88 1012 10 16 0.00 0.00
2:35 am 02:35 Clear 77 24.9 70 21.1 79 79 NW 5 7 29.87 1011 10 16 0.00 0.00
2:55 am 02:55 Clear 77 25 70 21.2 80 80 NW 6 9 29.87 1011 10 16 0.00 0.00
3:15 am 03:15 Clear 76 24.2 69 20.7 81 81 NNW 5 7 29.87 1011 10 16 0.00 0.00
3:35 am 03:35 Clear 76 24.3 69 20.4 79 79 NNW 6 9 29.87 1011 10 16 0.00 0.00
3:55 am 03:55 Clear 75 23.9 69 20.4 81 81 N 5 7 29.87 1011 10 16 0.00 0.00
4:15 am 04:15 Clear 75 23.9 68 20.2 80 80 N 3 6 29.87 1011 10 16 0.00 0.00
4:35 am 04:35 Clear 75 23.9 68 20.1 79 79 NNE 3 6 29.87 1011 10 16 0.00 0.00
4:55 am 04:55 Clear 74 23.4 68 20 81 81 ENE 5 7 29.86 1011 10 16 0.00 0.00
5:15 am 05:15 Clear 74 23.3 68 19.9 81 81 ENE 3 6 29.86 1011 10 16 0.00 0.00
5:35 am 05:35 Clear 74 23.5 68 19.9 80 80 NNW 7 11 29.87 1011 10 16 0.00 0.00
6:00 am 06:00 Mostly Clear 73 23 68 20 83 83 NNW 8 13 29.88 1012 10 16 0.00 0.00
6:50 am 06:50 Mostly Sunny 72 22 68 20 88 88 NNW 8 13 29.88 1012 10 16 0.00 0.00
7:53 am 07:53 Mostly Sunny 75 24 70 21 83 83 N 6 9 29.89 1012 10 16 0.00 0.00
8:45 am 08:45 Mostly Sunny 79 26 70 21 74 74 NE 7 11 29.90 1013 10 16 0.00 0.00
9:55 am 09:55 Mostly Sunny 82 28 70 21 66 66 NNE 7 11 29.91 1013 10 16 0.00 0.00
10:50 am 10:50 Mostly Sunny 84 29 72 22 66 66 NNE 7 11 29.91 1013 10 16 0.00 0.00
11:50 am 11:50 Mostly Sunny 88 31 72 22 59 59 NNE 7 11 29.91 1013 10 16 0.00 0.00
12:55 pm 12:55 Mostly Sunny 90 32 70 21 52 52 N 8 13 29.89 1012 10 16 0.00 0.00
1:50 pm 13:50 Partly Cloudy 90 32 66 19 46 46 N 8 13 29.87 1011 10 16 0.00 0.00
2:50 pm 14:50 Partly Cloudy 91 33 63 17 38 38 N 10 17 29.86 1011 10 16 0.00 0.00
3:45 pm 15:45 Partly Cloudy 91 33 64 18 41 41 N 6 9 29.84 1010 10 16 0.00 0.00
4:50 pm 16:50 Partly Cloudy 91 33 64 18 41 41 N 8 13 29.83 1010 10 16 0.00 0.00
5:45 pm 17:45 Partly Cloudy 90 32 63 17 41 41 ENE 7 11 29.82 1010 10 16 0.00 0.00
6:45 pm 18:45 Partly Cloudy 90 32 64 18 43 43 NNE 7 11 29.82 1010 10 16 0.00 0.00
7:45 pm 19:45 Partly Cloudy 84 29 66 19 55 55 NNE 5 7 29.82 1010 10 16 0.00 0.00
8:45 pm 20:45 Mostly Clear 82 28 66 19 58 58 NNE 3 6 29.83 1010 10 16 0.00 0.00
9:45 pm 21:45 Mostly Clear 81 27 70 21 70 70 NNE 3 6 29.86 1011 10 16 0.00 0.00
10:15 pm 22:15 Partly Cloudy 78 25.5 70 21.3 78 78 Calm 29.87 1011 10 16 0.00 0.00
10:35 pm 22:35 Mostly Cloudy 79 26 69 20.7 73 73 N 5 7 29.87 1011 10 16 0.00 0.00
10:55 pm 22:55 Cloudy 79 26.2 69 20.4 70 70 NNE 6 9 29.88 1012 10 16 0.00 0.00
11:15 pm 23:15 Mostly Cloudy 80 26.8 67 19.6 65 65 NE 7 11 29.88 1012 10 16 0.00 0.00
11:35 pm 23:35 Cloudy 79 26.2 68 19.8 68 68 NNE 6 9 29.88 1012 10 16 0.00 0.00
11:55 pm 23:55 Cloudy 78 25.6 67 19.6 70 70 NE 5 7 29.88 1012 10 16 0.00 0.00

Powered by AerisWeather